Chicago, IL

8:30 AM CST on November 21, 2019 (GMT -0600)
Chicago-O'Hare International

Weather History for KORD - May, 2019

Change the Weather History Date:

Monday, May 13, 2019

  Actual Average Record
Temperature  
Mean Temperature 52 °F 58 °F  
Max Temperature 61 °F 69 °F 89 °F (1991)
Min Temperature 42 °F 47 °F 34 °F (1996)
Degree Days  
Heating Degree Days 14 8  
Month to date heating degree days 173 122  
Since 1 July heating degree days 6362 6189  
Cooling Degree Days 0 1  
Month to date cooling degree days 0 11  
Year to date cooling degree days 4 21  
Growing Degree Days 2 (Base 50)    
Moisture  
Dew Point 38 °F    
Average Humidity 61    
Maximum Humidity 83    
Minimum Humidity 46    
Precipitation  
Precipitation 0.00 in 0.12 in 1.49 in (2010)
Month to date precipitation 3.17 1.51  
Year to date precipitation 16.05 10.91  
Snow  
Snow 0.00 in 0.00 in T in (1895)
Month to date snowfall 0.0 0.0  
Since 1 July snowfall 49.5 36.3  
Snow Depth 0.00 in    
Sea Level Pressure  
Sea Level Pressure 29.93 in    
Wind  
Wind Speed 7 mph ()    
Max Wind Speed 15 mph    
Max Gust Speed 21 mph    
Visibility 10.0 miles    
Events      
T = Trace of Precipitation, MM = Missing Value Source: Averaged Metar Reports

Daily Weather History Graph

Daily Weather History Graph

Search for Another Location

Airport or City:

Astronomy

May. 13, 2019 Rise Set
Actual Time 5:33 AM CDT 8:03 PM CDT
Civil Twilight 5:01 AM CDT 8:34 PM CDT
Nautical Twilight 4:22 AM CDT 9:14 PM CDT
Astronomical Twilight 3:38 AM CDT 9:58 PM CDT
Moon 2:07 PM CDT (5/13) 2:59 AM CDT (5/13)
Length of Visible Light 15h 33m
Length of Day
14h 29m
Waxing Gibbous, 69% of the Moon is Illuminated
May 13
Waxing Gibbous
May 18
Full
May 26
Last Quarter
Jun 3
New
Jun 10
First Quarter

Hourly Weather History & Observations

Time (CDT) Temp. Windchill Dew Point Humidity Pressure Visibility Wind Dir Wind Speed Gust Speed Precip Events Conditions
12:51 AM 44.1 °F 39.5 °F 39.0 °F 82% 29.85 in 10.0 mi NNW 8.1 mph - N/A   Mostly Cloudy
1:51 AM 44.1 °F 40.1 °F 37.9 °F 79% 29.85 in 10.0 mi NW 6.9 mph - N/A   Mostly Cloudy
2:51 AM 44.1 °F 40.1 °F 36.0 °F 73% 29.84 in 10.0 mi NW 6.9 mph - N/A   Mostly Cloudy
3:51 AM 44.1 °F 40.1 °F 36.0 °F 73% 29.85 in 10.0 mi NW 6.9 mph - N/A   Mostly Cloudy
4:51 AM 43.0 °F 39.5 °F 35.1 °F 74% 29.86 in 10.0 mi NW 5.8 mph - N/A   Mostly Cloudy
5:51 AM 44.1 °F 40.8 °F 36.0 °F 73% 29.87 in 10.0 mi NW 5.8 mph - N/A   Mostly Cloudy
6:51 AM 46.0 °F 43.9 °F 37.0 °F 71% 29.90 in 10.0 mi NNW 4.6 mph - N/A   Mostly Cloudy
7:51 AM 48.0 °F - 37.9 °F 68% 29.91 in 10.0 mi NNW 6.9 mph - N/A   Mostly Cloudy
8:51 AM 52.0 °F - 39.9 °F 63% 29.93 in 10.0 mi Variable 5.8 mph - N/A   Mostly Cloudy
9:51 AM 54.0 °F - 39.9 °F 59% 29.93 in 10.0 mi North 9.2 mph - N/A   Partly Cloudy
10:51 AM 55.9 °F - 37.9 °F 51% 29.93 in 10.0 mi NE 9.2 mph - N/A   Partly Cloudy
11:51 AM 59.0 °F - 39.0 °F 48% 29.93 in 10.0 mi North 8.1 mph - N/A   Scattered Clouds
12:51 PM 59.0 °F - 39.9 °F 49% 29.93 in 10.0 mi NE 11.5 mph - N/A   Scattered Clouds
1:51 PM 60.1 °F - 39.0 °F 46% 29.93 in 10.0 mi ENE 10.4 mph - N/A   Partly Cloudy
2:51 PM 60.1 °F - 39.9 °F 47% 29.93 in 10.0 mi ENE 11.5 mph - N/A   Partly Cloudy
3:51 PM 59.0 °F - 39.0 °F 48% 29.93 in 10.0 mi ENE 12.7 mph - N/A   Partly Cloudy
4:51 PM 59.0 °F - 39.0 °F 48% 29.95 in 10.0 mi NE 10.4 mph - N/A   Partly Cloudy
5:51 PM 57.0 °F - 37.9 °F 49% 29.96 in 10.0 mi NE 10.4 mph - N/A   Partly Cloudy
6:51 PM 55.0 °F - 36.0 °F 49% 29.97 in 10.0 mi NE 12.7 mph - N/A   Partly Cloudy
7:51 PM 52.0 °F - 36.0 °F 54% 29.98 in 10.0 mi ENE 8.1 mph - N/A   Partly Cloudy
8:51 PM 48.9 °F - 37.0 °F 64% 30.00 in 10.0 mi East 5.8 mph - N/A   Partly Cloudy
9:51 PM 48.0 °F - 37.0 °F 66% 30.01 in 10.0 mi ESE 5.8 mph - N/A   Partly Cloudy
10:51 PM 48.0 °F - 36.0 °F 63% 30.01 in 10.0 mi Calm Calm - N/A   Partly Cloudy
11:51 PM 46.0 °F - 37.0 °F 71% 30.01 in 10.0 mi Calm Calm - N/A   Clear